Regional Weather Roundup
Issued by NWS

Home | Current Version | Previous Version | Graphics & Text | Print | Product List | Glossary On
Versions: 1 2 3 4 5 6 7 8 9 10 11 12 13 14 15 16 17 18 19 20 21 22 23 24 25 26 27 28 29 30 31 32 33 34 35 36 37 38 39 40 41 42 43 44 45 46 47 48 49 50
000
ASUS43 KDTX 231210
RWRMI
MICHIGAN HOURLY REGIONAL WEATHER ROUNDUP
NATIONAL WEATHER SERVICE DETROIT/PONTIAC MI
800 AM EDT THU OCT 23 2014

NOTE: "FAIR" INDICATES FEW OR NO CLOUDS BELOW 12,000 FEET WITH NO
SIGNIFICANT WEATHER AND/OR OBSTRUCTION TO VISIBILITY.

MIZ047>049-052>055-059>063-066>070-074>076-081>083-231300-
SOUTHEAST LOWER MICHIGAN

CITY           SKY/WX    TMP DP  RH WIND       PRES   REMARKS
ADRIAN         CLEAR     31  30  96 CALM      30.26S
6HR MIN TEMP:  31; 6HR MAX TEMP:  36;

ALMA           FOG       29  29 100 CALM      30.25F VSB<1/4
ANN ARBOR      PTCLDY    27  25  92 W3        30.24S
BAD AXE        FOG       26  26 100 CALM      30.25S VSB 1/4
6HR MIN TEMP:  25; 6HR MAX TEMP:  29;

DETROIT CITY   CLEAR     39  35  86 N3        30.24F
6HR MIN TEMP:  38; 6HR MAX TEMP:  42;

DETROIT        CLEAR     36  34  92 CALM      30.25S
6HR MIN TEMP:  35; 6HR MAX TEMP:  39;

FLINT          FOG       30  28  92 CALM      30.26R VSB 1/4
6HR MIN TEMP:  29; 6HR MAX TEMP:  34;

GROSSE ILE     CLEAR     37  36  93 CALM      30.23S
HILLSDALE      FOG       29  29 100 CALM      30.24S VSB 1/4
HOWELL         MOCLDY    30  30 100 CALM      30.24S FOG
6HR MIN TEMP:  29; 6HR MAX TEMP:  34;


CITY           SKY/WX    TMP DP  RH WIND       PRES   REMARKS
JACKSON        FOG       27  26  96 CALM      30.24F VSB 1/2
6HR MIN TEMP:  27; 6HR MAX TEMP:  31;

LAMBERTVILLE   FOG       34  32  93 CALM      30.25S VSB 3/4
LANSING        FOG       30  29  96 CALM      30.25F VSB 1/4
6HR MIN TEMP:  28; 6HR MAX TEMP:  34;

LAPEER         NOT AVBL
MASON          FOG       28  28  99 CALM      30.25S VSB 1/4
MONROE         FOG       30  30 100 CALM      30.23S VSB 1
MT. CLEMENS    CLEAR     36  36  99 NW5       30.21F
6HR MIN TEMP:  36; 6HR MAX TEMP:  38;

PONTIAC        CLEAR     34  32  92 CALM      30.23F
6HR MIN TEMP:  33; 6HR MAX TEMP:  37;

PORT HOPE        N/A     33  32  96 W3        30.22F
6HR MIN TEMP:  32; 6HR MAX TEMP:  36;

PORT HURON     CLEAR     34  34 100 NW6       30.24S
TRI CITIES     FOG       30  28  92 CALM      30.26F VSB 1
6HR MIN TEMP:  30; 6HR MAX TEMP:  37;

YPSILANTI      CLEAR     35  31  85 CALM      30.25S
6HR MIN TEMP:  34; 6HR MAX TEMP:  40;

$$
MIZ043>046-050>051-056>058-064>065-071>073-077>080-231300-
SOUTHWEST LOWER MICHIGAN

CITY           SKY/WX    TMP DP  RH WIND       PRES   REMARKS
BATTLE CREEK   FOG       30  28  92 CALM      30.25F VSB 1/4
6HR MIN TEMP:  30; 6HR MAX TEMP:  35;

BENTON HARBOR  CLEAR     35  34  96 S3        30.24S FOG
6HR MIN TEMP:  28; 6HR MAX TEMP:  34;

BIG RAPIDS     FOG       29  29 100 CALM      30.23F VSB<1/4
6HR MIN TEMP:  28; 6HR MAX TEMP:  29;

COLDWATER      FOG       30  30  99 CALM      30.24F VSB 1/4
6HR MIN TEMP:  30; 6HR MAX TEMP:  32;

HOLLAND        FOG       33  30  88 CALM      30.25S VSB 1/4
6HR MIN TEMP:  31; 6HR MAX TEMP:  35;

GRAND RAPIDS   PTCLDY    29  27  92 CALM      30.25S FOG
6HR MIN TEMP:  29; 6HR MAX TEMP:  34;

KALAMAZOO      FOG       33  32  96 S5        30.25S VSB 1/4
6HR MIN TEMP:  30; 6HR MAX TEMP:  33;

MARSHALL       FOG       28  28  99 CALM      30.24F VSB 1/4
MUSKEGON       FOG       32  30  92 SE3       30.24F VSB 1/4
6HR MIN TEMP:  30; 6HR MAX TEMP:  33;

$$
MIZ016>042-231300-
NORTHERN LOWER MICHIGAN

CITY           SKY/WX    TMP DP  RH WIND       PRES   REMARKS
ALPENA         PTCLDY    24  21  88 CALM      30.25R
6HR MIN TEMP:  22; 6HR MAX TEMP:  28;

BEAVER ISLAND  PTCLDY    31  31 100 CALM      30.20F FOG
6HR MIN TEMP:  28; 6HR MAX TEMP:  31;

BELLAIRE       CLEAR     26  25  94 CALM      30.24S
CADILLAC       FOG       32  32 100 CALM      30.21S VSB 1/4
CHARLEVOIX     CLEAR     35  35 100 S7        30.25S
6HR MIN TEMP:  32; 6HR MAX TEMP:  35;

FRANKFORT      MOSUNNY   33  30  92 CALM      30.22S FOG
GAYLORD        PTCLDY    28  25  88 CALM      30.21F FOG
6HR MIN TEMP:  25; 6HR MAX TEMP:  31;

GRAYLING       FOG       27  27 100 CALM      30.23S VSB 1/4
6HR MIN TEMP:  22; 6HR MAX TEMP:  27;

HARBOR SPRINGS CLEAR     31  29  92 CALM      30.22F
HOUGHTON LAKE  FOG       28  27  96 CALM      30.23F VSB 1/4
6HR MIN TEMP:  24; 6HR MAX TEMP:  28;

MANISTEE       CLEAR     28  25  86 E5        30.23S
OSCODA         CLEAR     25  23  93 CALM      30.24S
PELLSTON       CLEAR     22  19  89 CALM      30.23F
6HR MIN TEMP:  21; 6HR MAX TEMP:  26;

TRAVERSE CITY  CLEAR     32  29  88 CALM      30.22S
6HR MIN TEMP:  29; 6HR MAX TEMP:  34;

$$
MIZ007>008-015-231300-
EASTERN UPPER MICHIGAN

CITY           SKY/WX    TMP DP  RH WIND       PRES   REMARKS
KINROSS        MOCLDY    34  32  93 SE3       30.22S VSB 3/4
6HR MIN TEMP:  30; 6HR MAX TEMP:  34;

MACKINAC ISLAN CLEAR     39  37  93 S7        30.22S
6HR MIN TEMP:  37; 6HR MAX TEMP:  40;

NEWBERRY       CLEAR     33  33 100 W10       30.18F FOG
S. S. MARIE    CLOUDY    32  30  92 E3        30.21F FOG
6HR MIN TEMP:  31; 6HR MAX TEMP:  34;

$$
MIZ004>006-011>014-085-231300-
CENTRAL UPPER MICHIGAN

CITY           SKY/WX    TMP DP  RH WIND       PRES   REMARKS
MANISTIQUE     MOCLDY    45  42  89 SW6       30.18F
ESCANABA       CLOUDY    27  25  93 CALM      30.16F VSB 1/4
6HR MIN TEMP:  27; 6HR MAX TEMP:  39;

MENOMINEE      CLEAR     34  30  86 CALM      30.17S
6HR MIN TEMP:  34; 6HR MAX TEMP:  41;

SAWYER-GWINN   CLOUDY    36  36 100 S14       30.12F FOG
$$
MIZ001>003-009>011-084-231300-
WESTERN UPPER MICHIGAN

CITY           SKY/WX    TMP DP  RH WIND       PRES   REMARKS
IRON MOUNTAIN  CLOUDY    37  35  92 SE8       30.12F FOG
6HR MIN TEMP:  37; 6HR MAX TEMP:  39;

HOUGHTON       CLOUDY    43  38  82 SE8       30.05F
6HR MIN TEMP:  42; 6HR MAX TEMP:  44; 6HR PCP:  0.03;

COPPER HARBOR    N/A     45  40  82 SW12G20   30.05F
6HR MIN TEMP:  40; 6HR MAX TEMP:  46;

IRONWOOD       CLOUDY    46  41  81 S7        29.99F
6HR MIN TEMP:  46; 6HR MAX TEMP:  50;

$$

ABBREVIATIONS USED IN REMARKS
   TC - TEMPERATURE IN CELSIUS
  WCI - WIND CHILL INDEX
   HX - HEAT INDEX
  VSB - VISIBILITY




USA.gov is the U.S. government's official web portal to all federal, state and local government web resources and services.